Regional Weather Roundup
Issued by NWS Northern Indiana

Home | Current Version | Previous Version | Text Only | Print | Product List | Glossary On
Versions: 1 2 3 4 5 6 7 8 9 10 11 12 13 14 15 16 17 18 19 20 21 22 23 24 25 26 27 28 29 30 31 32 33 34 35 36 37 38 39 40 41 42 43 44 45 46 47 48 49 50
000
ASUS43 KIWX 260010
RWRIWX

KIWX WEATHER ROUNDUP
NATIONAL WEATHER SERVICE NORTHERN INDIANA
700 PM EST THU DEC 25 2014

NOTE: "FAIR" INDICATES FEW OR NO CLOUDS BELOW 12,000 FEET WITH NO
SIGNIFICANT WEATHER AND/OR OBSTRUCTIONS TO VISIBILITY.

* THESE STATIONS ARE NOT UNDER NWS QUALITY CONTROL. THEY ALSO MAY NOT
  REPORT WEATHER SUCH AS PRECIPITATION OR FOG.

INZ001>027-260100-
NORTHERN INDIANA

CITY           SKY/WX    TMP DP  RH WIND       PRES   REMARKS
GARY*          PTCLDY    41  32  70 S12       30.04R
VALPARAISO     PTCLDY    36  31  82 S8        30.05R
6HR MIN TEMP:  35; 6HR MAX TEMP:  41;

MICHIGAN CITY* PTCLDY    36  30  80 S8        30.05R
LAPORTE*       PTCLDY    37  33  85 S9        30.06R
6HR MIN TEMP:  37; 6HR MAX TEMP:  42;

KNOX*          CLEAR     36  29  77 S12       30.07R
6HR MIN TEMP:   9; 6HR MAX TEMP:  81;

SOUTH BEND     PTCLDY    36  30  79 S8        30.07R
6HR MIN TEMP:  35; 6HR MAX TEMP:  40;

GOSHEN         CLEAR     35  30  82 S9        30.09R WCI  28
6HR MIN TEMP:  35; 6HR MAX TEMP:  38;

MONTICELLO*    CLEAR     36  32  85 SE6       30.07F
6HR MIN TEMP:  36; 6HR MAX TEMP:  40;

LOGANSPORT*    CLEAR     34  30  86 S8        30.11S WCI  27
ROCHESTER*     CLEAR     37  34  87 S7        30.09S
WARSAW*        CLEAR     34  32  93 S5        30.09R WCI  30
ANGOLA*        CLOUDY    36  30  80 SW8       30.09R
FORT WAYNE     MOCLDY    35  31  85 S10       30.13R WCI  27
6HR MIN TEMP:  35; 6HR MAX TEMP:  38;

HUNTINGTON*    PTCLDY    35  32  87 S7        30.12S WCI  29
6HR MIN TEMP:  35; 6HR MAX TEMP:  38;

PERU/GRISSOM   CLEAR     34  34 100 S6        30.10S WCI  29
6HR MIN TEMP:  34; 6HR MAX TEMP:  39;

MARION*        CLEAR     34  30  86 S6        30.13S WCI  28
6HR MIN TEMP:  22; 6HR MAX TEMP:  54;


$$
INZ028>050-260100-
CENTRAL INDIANA

CITY           SKY/WX    TMP DP  RH WIND       PRES   REMARKS
LAFAYETTE      CLEAR     35  31  85 SE6       30.09S WCI  30
6HR MIN TEMP:  34; 6HR MAX TEMP:  41;

KOKOMO*        CLEAR     34  28  80 S9        30.11S WCI  26
6HR MIN TEMP:  34; 6HR MAX TEMP:  39;

MUNCIE*        CLEAR     36  30  79 S6        30.14R
6HR MIN TEMP:  36; 6HR MAX TEMP:  39;

INDIANAPOLIS   PTCLDY    35  30  82 S9        30.12S WCI  28
6HR MIN TEMP:  33; 6HR MAX TEMP:  41;


$$
MIZ043>046-050>051-056>058-064>065-071>073-077>080-260100-
SOUTHWEST LOWER MICHIGAN

CITY           SKY/WX    TMP DP  RH WIND       PRES   REMARKS
BATTLE CREEK   CLEAR     34  28  79 S7        30.06R WCI  28
6HR MIN TEMP:  34; 6HR MAX TEMP:  38;

BENTON HARBOR  PTCLDY    35  31  85 S9        30.04R WCI  28
6HR MIN TEMP:  35; 6HR MAX TEMP:  39;

COLDWATER*     PTCLDY    34  30  85 MISG      30.07R
6HR MIN TEMP:  34; 6HR MAX TEMP:  36;

HILLSDALE*     MOCLDY    35  31  84 SW7       30.07R WCI  29
6HR MIN TEMP:  35; 6HR MAX TEMP:  36;

HOLLAND        PTCLDY    36  29  75 S9        30.01S
6HR MIN TEMP:  36; 6HR MAX TEMP:  40;

GRAND RAPIDS   PTCLDY    32  28  85 S8        30.02R WCI  25
6HR MIN TEMP:  32; 6HR MAX TEMP:  37;

KALAMAZOO      PTCLDY    34  29  82 S12       30.06R WCI  25
6HR MIN TEMP:  33; 6HR MAX TEMP:  38;

STURGIS*       CLEAR     34  30  86 S7        30.07R WCI  28
THREE RIVERS*  FAIR      34  30  85 S8        30.07R WCI  28
6HR MIN TEMP:  34; 6HR MAX TEMP:  38;


$$
OHZ001>008-015>018-024>025-260100-
NORTHWEST OHIO

CITY           SKY/WX    TMP DP  RH WIND       PRES   REMARKS
WAUSEON*       CLOUDY    36  32  87 SW7       30.11R
DEFIANCE       CLOUDY    37  31  78 SW9       30.13R
6HR MIN TEMP:  37; 6HR MAX TEMP:  38;

FINDLAY        CLOUDY    37  31  78 SW8       30.13R
6HR MIN TEMP:  37; 6HR MAX TEMP:  39;

TOLEDO EXPRESS CLOUDY    37  29  72 SW8       30.11R
6HR MIN TEMP:  37; 6HR MAX TEMP:  37;

TOLEDO METCALF CLOUDY    38  29  70 SW14G21   30.13R
6HR MIN TEMP:  38; 6HR MAX TEMP:  39;

LIMA           CLOUDY    38  30  73 S8        30.14R
6HR MIN TEMP:  38; 6HR MAX TEMP:  39;


$$
AND FOR LAKE MICHIGAN COASTAL AND OPEN LAKE BUOY OBSERVATIONS

STATION/POSITION TEMP    WIND        PRES    VSBY  WAVE
                 AIR SEA DIR/SP/G                  HT/PER
                 (F)     (DEG/KT/KT) (MB)    (MI)  (FT/S)
CALUMET HARBOR    40     180/ 10/ 12 1015.3S
MICHIGAN CITY     39     160/ 13/ 17   N/A
SAINT JOSEPH      37     150/  4/ 10 1017.3S
MICHIGAN CITY CG     37                N/A       6   2

$$
&&


USA.gov is the U.S. government's official web portal to all federal, state and local government web resources and services.